Theta_e
307 307 307 307 306 305 304 306 306 306 306 306 306 306 307 307 308 314 316 310 311 326 325 328 330 326 329 337 343 348 358 357 358 363 360 354 356 353 354 354 353 353 350 347 348
307 307 307 307 306 306 304 306 306 307 307 306 307 306 306 309 314 317 314 310 315 328 328 331 326 322 324 329 339 351 354 356 356 357 360 356 353 354 357 356 356 352 348 347 349
307 307 306 306 307 306 305 304 306 306 308 309 309 307 307 312 318 325 323 312 323 326 320 323 321 326 328 329 335 343 353 353 357 354 353 353 353 355 361 360 353 353 350 348 348
307 307 306 306 306 306 305 304 306 306 308 310 310 307 311 317 326 327 317 312 317 318 317 316 315 321 329 334 333 340 341 353 355 353 351 354 354 356 357 358 353 349 348 348 348
307 306 306 306 306 306 305 304 305 306 309 311 310 310 317 318 320 320 317 315 320 317 317 314 315 317 325 329 333 337 338 347 352 352 352 355 355 355 359 355 354 350 348 347 347
307 306 305 306 306 305 304 304 305 307 307 310 311 312 315 312 318 323 320 319 320 317 315 315 316 318 324 331 334 335 336 336 351 351 353 357 357 356 356 355 355 351 349 347 346
306 306 305 305 305 305 305 305 305 307 308 310 313 315 318 314 324 325 321 320 319 318 313 315 317 326 330 335 332 334 336 335 351 355 354 356 358 356 356 355 358 354 350 348 347
306 305 305 305 306 307 306 304 306 308 310 312 314 320 319 321 325 324 322 324 321 318 317 317 318 322 328 331 329 328 323 323 347 358 357 357 362 358 355 357 356 354 352 350 348
305 305 306 307 308 307 306 306 310 312 311 318 322 322 325 324 319 319 320 321 325 316 316 319 319 320 324 329 325 323 331 327 343 355 358 358 361 356 355 356 355 354 352 350 348
307 307 307 308 309 307 306 313 314 314 319 322 322 320 319 320 318 317 317 320 327 322 320 319 319 322 324 325 332 331 328 324 323 355 357 359 359 357 355 358 355 353 350 349 348
309 309 308 309 309 306 310 313 308 310 325 320 324 321 322 318 316 316 318 322 321 320 321 320 325 328 329 326 326 325 325 326 325 323 336 360 358 358 354 356 355 354 350 350 349
310 310 309 310 309 311 312 311 312 313 311 314 319 322 322 321 313 315 316 320 324 324 323 325 327 326 327 327 327 327 327 325 323 322 320 343 360 355 355 355 355 354 352 350 348
310 310 311 310 309 313 312 315 316 313 309 311 311 313 314 314 312 316 316 316 325 326 327 327 329 329 329 329 328 326 325 325 324 325 355 356 363 361 354 354 356 349 351 350 349
309 310 311 310 312 313 314 316 316 311 310 315 314 314 313 312 316 319 318 319 322 327 325 327 326 328 327 329 326 327 323 324 323 320 321 338 354 357 358 356 355 355 348 351 350
310 310 311 310 313 313 316 316 316 311 317 317 314 314 310 312 313 315 315 316 319 320 319 323 323 324 324 324 325 326 325 323 322 319 318 319 323 339 356 358 354 353 352 350 350
311 311 311 310 310 315 315 316 314 311 317 314 313 312 312 311 313 315 315 313 315 316 316 317 318 319 320 322 322 324 322 318 315 315 319 319 318 322 357 357 352 349 348 352 349
314 313 311 310 312 314 315 310 312 316 315 317 312 311 310 311 312 314 312 312 311 314 313 313 314 313 313 318 318 318 318 321 321 319 320 316 319 320 332 346 350 348 346 348 350
314 313 314 314 315 314 313 311 317 318 316 315 316 314 312 312 312 312 312 311 312 310 310 312 314 313 314 315 316 318 318 320 324 323 321 315 321 328 336 335 338 339 343 345 347
315 316 317 318 317 315 309 313 315 315 314 315 315 315 315 315 312 313 311 311 313 311 312 312 315 313 315 314 314 317 316 316 317 317 321 321 321 325 338 340 340 340 341 342 343
318 318 317 317 316 313 310 314 314 312 314 315 316 315 315 314 315 312 312 311 313 311 310 313 314 313 313 313 313 312 312 318 316 322 325 323 325 339 344 343 344 348 347 343 342
317 312 315 315 315 308 312 314 313 311 313 314 313 313 314 313 312 311 312 312 312 313 308 310 310 312 312 312 313 311 312 311 315 317 321 323 339 338 343 340 342 342 345 342 344
313 313 315 315 311 306 311 313 312 311 310 311 312 312 312 312 311 311 312 312 312 310 311 307 307 311 313 309 311 312 311 310 314 317 317 319 336 333 336 336 337 338 336 338 341
313 313 316 315 312 309 310 312 310 311 310 311 310 310 309 310 310 311 312 311 310 309 309 308 305 307 309 308 308 309 312 310 309 308 313 320 326 335 335 337 334 334 334 334 337
308 311 308 306 304 310 311 311 312 311 310 310 309 309 308 308 306 309 309 311 312 315 316 307 303 305 306 310 309 313 312 312 310 312 313 314 315 336 335 336 336 335 333 332 332
306 310 308 310 310 309 309 311 312 312 310 308 310 310 309 309 308 309 308 308 309 310 308 305 308 310 309 309 311 311 311 312 313 313 314 316 333 327 333 332 333 334 334 332 331
311 312 307 306 307 309 308 311 313 312 311 310 309 310 308 309 310 311 309 309 309 307 308 306 312 310 310 311 309 309 314 314 316 323 319 322 327 320 326 323 325 327 333 333 331
314 314 307 308 307 308 310 311 312 312 312 310 309 308 310 311 309 308 307 306 308 308 305 307 307 306 309 309 307 309 312 321 322 319 323 327 322 319 325 322 321 321 322 328 328
Wind_Speed
23 23 24 23 23 23 21 18 17 17 16 15 14 13 11 12 13 6 7 7 13 12 17 19 11 8 8 3 4 3 2 3 3 5 6 6 1 6 11 12 4 2 9 21 30
23 23 24 24 23 22 21 18 16 18 17 15 13 12 10 10 10 10 9 13 18 20 20 17 7 9 2 4 4 4 3 5 2 5 10 12 5 5 5 4 7 13 23 28 29
24 24 24 24 23 23 21 18 16 17 16 14 12 9 5 5 3 6 4 20 25 20 14 13 13 6 2 4 5 5 4 5 2 7 16 15 11 4 2 4 4 21 24 24 27
25 25 25 24 24 23 22 19 16 15 14 12 9 5 1 1 2 1 3 21 19 17 11 10 4 6 4 5 5 3 6 5 6 9 9 11 13 10 9 2 3 16 19 23 22
25 25 25 25 24 24 22 21 15 12 11 9 8 2 1 1 7 5 12 20 17 18 13 6 5 5 5 4 3 4 5 8 8 11 6 9 6 5 6 4 2 18 18 18 16
25 25 24 24 25 24 23 20 15 10 9 7 7 2 1 2 2 9 15 19 18 18 11 8 8 6 2 4 3 4 6 8 11 10 7 8 7 6 7 7 9 17 19 17 16
26 25 24 25 25 25 23 19 14 10 8 5 3 3 1 9 2 13 15 16 19 25 6 13 4 3 0 5 4 8 7 4 8 10 7 9 2 5 11 11 14 18 16 17 16
27 26 25 26 26 26 22 17 13 13 4 1 3 2 6 4 4 12 15 5 10 20 5 16 7 1 2 4 5 2 4 3 3 10 8 6 4 11 13 16 14 17 18 17 17
28 28 27 28 28 24 21 16 10 2 8 7 4 2 8 7 5 9 19 7 12 12 14 7 9 5 1 1 4 6 1 1 2 9 5 9 4 6 7 15 15 16 19 18 16
28 28 30 30 27 23 18 6 7 9 9 3 2 2 5 3 3 7 14 16 5 7 4 3 2 2 3 3 3 1 2 2 2 7 3 8 8 4 6 8 17 17 16 19 19
27 28 30 31 25 17 13 4 3 3 3 6 3 4 6 9 3 4 8 8 5 4 5 3 4 4 6 6 4 3 3 2 4 7 6 15 9 11 11 4 15 15 18 17 21
28 28 30 28 19 8 6 3 1 0 6 8 7 7 13 6 3 2 4 4 5 4 4 5 3 7 1 4 4 2 1 5 6 4 6 3 4 6 11 9 15 18 18 19 18
29 28 28 26 9 5 7 4 22 6 2 7 5 4 5 8 5 3 5 3 4 4 4 5 4 3 4 3 2 3 3 4 6 2 5 8 3 2 2 3 3 6 14 16 14
28 27 25 21 1 11 5 19 20 0 4 5 3 5 3 3 3 2 5 4 2 8 7 3 3 5 4 5 6 5 7 7 4 3 2 3 2 5 8 10 11 10 13 13 15
30 25 19 9 8 4 9 20 12 4 4 2 2 1 2 4 5 1 1 4 4 4 6 6 2 5 5 9 6 9 5 7 5 3 3 3 4 3 8 11 18 20 13 13 13
25 19 14 4 7 5 16 14 3 4 3 2 2 2 4 3 1 2 4 7 2 4 2 5 1 3 6 3 9 7 4 6 4 4 2 4 5 4 6 20 17 16 16 16 15
18 12 7 4 3 8 16 3 5 5 6 8 4 1 4 1 2 4 6 10 5 3 4 4 4 5 6 3 4 5 6 2 2 2 5 5 3 2 9 11 16 19 20 20 17
11 5 5 10 10 14 7 5 9 5 4 4 4 1 5 2 7 7 4 6 7 6 4 3 2 7 7 2 1 3 6 5 5 4 4 6 5 1 6 8 10 13 14 13 16
7 6 7 7 7 1 5 6 0 3 5 7 4 7 7 7 5 6 5 5 6 5 5 2 2 5 4 6 2 3 5 0 6 4 4 2 3 5 22 15 15 14 12 17 20
6 6 7 12 4 4 5 4 3 5 5 5 5 5 7 8 5 5 5 5 5 9 1 1 2 3 6 6 8 7 2 4 4 4 3 4 4 3 17 20 20 19 15 11 16
5 4 20 8 2 6 4 2 3 5 4 6 5 5 2 3 4 3 2 4 5 4 8 2 3 6 3 7 6 7 6 5 3 3 5 3 2 5 10 11 15 19 24 7 15
4 5 24 3 4 2 3 2 3 7 6 6 4 4 4 4 6 4 4 2 5 2 4 5 3 3 3 7 10 16 5 3 4 5 2 3 1 7 8 9 14 19 21 22 18
3 2 16 7 4 3 4 5 6 7 7 5 7 5 6 4 5 4 4 7 8 4 2 3 4 3 4 6 8 7 7 5 3 2 2 1 2 8 9 10 13 19 18 19 19
3 4 5 5 2 5 4 5 3 6 5 5 4 5 7 10 10 5 5 6 6 5 11 8 4 5 5 3 2 3 5 6 4 3 3 2 5 7 12 11 12 13 17 17 16
4 0 2 3 5 5 5 4 4 3 4 8 7 7 3 5 5 5 6 5 5 10 6 5 3 2 3 2 2 1 2 3 1 3 3 4 4 9 10 11 11 9 11 16 16
3 3 4 2 2 6 6 3 2 3 3 3 6 5 7 5 4 1 1 1 1 5 4 4 2 2 2 3 3 2 4 4 2 3 3 4 3 10 10 12 12 13 13 13 13
4 3 4 4 3 4 1 1 2 0 5 3 3 4 4 1 4 3 4 3 3 3 3 3 4 3 2 3 2 3 5 6 6 9 4 5 4 7 10 10 13 12 12 12 12
Wind_Direction
353 352 350 349 348 348 350 347 343 339 331 325 320 314 314 313 310 291 237 214 186 166 170 167 178 191 166 179 218 237 281 281 267 151 123 140 315 343 315 151 125 342 137 141 140
348 347 345 345 344 344 346 344 339 338 329 321 318 317 308 313 313 262 254 181 159 146 152 158 176 162 162 189 189 193 179 229 282 106 150 151 122 336 358 171 36 95 121 138 137
344 344 342 340 340 339 340 341 337 335 330 324 325 326 309 329 328 247 298 169 159 164 160 164 155 150 176 172 209 206 211 188 126 120 143 145 144 141 217 262 86 150 145 145 147
341 340 339 338 337 337 336 337 336 336 335 329 343 342 333 334 169 328 131 161 159 179 158 144 115 141 188 202 204 259 225 178 143 154 162 163 135 162 193 120 165 171 157 148 156
338 338 337 335 335 333 332 334 333 334 339 332 342 330 109 296 251 174 151 155 161 164 179 149 141 160 191 201 196 238 270 182 173 162 156 144 158 170 135 207 167 161 163 159 159
335 335 335 334 334 332 330 329 329 326 328 317 327 173 190 271 156 177 161 165 174 174 182 169 182 186 205 250 181 230 234 253 174 170 156 159 152 181 165 177 153 165 171 173 170
337 336 336 335 334 332 327 325 321 311 314 300 304 153 248 237 28 182 174 177 180 186 162 200 175 119 36 300 315 252 268 308 150 154 163 141 94 209 155 170 181 177 172 171 179
339 338 338 338 335 331 324 325 313 301 270 211 149 147 247 194 255 200 195 195 199 195 160 202 157 319 201 287 326 299 52 34 186 156 168 166 232 203 161 165 170 176 174 177 181
343 341 340 338 336 333 327 328 323 140 140 135 130 159 270 307 201 227 208 195 177 184 211 170 156 201 296 152 11 3 153 54 119 213 159 187 247 219 165 150 169 181 176 181 177
343 341 340 339 339 333 337 33 108 109 114 128 246 320 272 293 205 164 201 197 146 125 154 172 92 122 29 82 204 176 45 20 71 170 197 202 250 270 154 181 178 185 189 183 186
341 339 339 340 339 333 341 117 24 20 188 201 190 260 267 316 273 171 157 128 102 106 139 204 110 194 217 196 177 141 178 283 225 202 200 209 216 217 162 182 181 184 198 194 194
339 337 337 340 338 339 20 29 296 115 307 236 233 250 266 254 303 270 136 119 128 181 134 50 193 221 242 211 199 263 332 294 291 275 171 315 274 206 174 194 187 192 197 200 193
341 336 335 339 342 359 325 353 352 320 108 298 212 211 225 138 223 214 123 136 126 149 138 138 218 185 171 277 259 259 181 232 223 7 28 115 43 177 164 279 237 226 215 211 204
341 335 334 342 23 340 305 342 353 164 62 286 247 269 164 181 39 166 181 128 75 182 150 194 238 201 242 240 158 263 199 234 246 71 254 150 235 243 214 236 259 233 220 218 209
335 333 328 333 309 303 326 342 346 82 75 191 206 123 92 124 163 260 114 60 144 130 101 242 218 180 205 228 156 236 214 193 202 151 81 303 87 259 176 233 240 236 221 224 223
337 338 319 327 283 299 339 331 63 39 78 17 104 151 91 24 230 107 58 31 93 119 337 224 256 137 214 231 188 236 129 52 62 107 62 251 121 290 185 222 238 237 224 219 212
347 329 295 263 269 330 337 41 44 64 325 344 341 80 80 46 27 45 76 50 36 56 2 2 15 324 34 46 20 92 68 353 31 57 191 241 74 257 269 283 244 229 209 210 208
4 16 319 277 286 300 351 56 59 329 327 328 316 32 76 109 9 22 55 30 5 38 65 57 15 7 332 6 310 325 144 151 179 170 185 235 202 119 337 6 344 313 245 224 215
10 353 319 327 311 190 72 56 185 305 287 324 335 49 2 2 101 75 58 32 20 356 107 55 121 337 334 45 53 309 51 266 96 19 73 261 304 280 351 355 357 342 315 216 201
5 358 328 329 309 38 71 98 81 336 339 30 69 24 36 346 59 69 32 314 350 19 109 90 41 2 306 12 30 78 331 64 12 128 154 293 76 348 351 345 345 357 331 263 210
26 39 356 343 324 40 92 99 50 334 48 46 23 37 36 6 50 72 52 345 351 358 54 43 59 304 40 20 336 11 15 5 108 98 152 164 22 51 2 350 9 5 7 317 197
40 45 4 2 44 11 42 38 41 353 8 33 66 55 41 7 46 65 92 78 334 10 52 342 119 49 34 310 109 76 59 72 86 326 22 113 165 358 337 355 42 27 21 24 37
78 284 9 53 84 11 336 30 61 35 21 38 13 16 26 34 89 64 77 5 11 62 86 330 19 45 23 343 11 39 356 19 109 61 27 94 279 15 359 344 26 50 31 31 30
79 33 340 37 56 104 76 6 90 27 51 54 20 43 47 21 21 55 35 38 11 63 65 83 63 128 164 197 201 7 6 6 89 72 299 124 307 2 3 359 12 25 55 37 36
35 197 191 348 1 67 66 11 52 34 38 24 26 36 75 58 36 43 11 3 9 0 32 88 104 119 165 208 95 281 295 294 163 205 138 267 63 354 349 5 354 5 27 57 29
90 72 12 44 342 36 18 351 52 358 49 18 91 52 59 91 130 94 60 360 318 355 49 21 161 76 0 29 59 83 26 60 55 309 219 186 80 352 44 19 2 8 14 31 34
46 69 102 318 21 75 272 299 352 94 16 72 118 106 63 128 194 210 192 180 67 57 55 52 124 90 289 360 76 24 342 106 101 38 340 59 47 355 44 25 10 353 2 13 25